When you browse on this site, cookies collect data to enhance your experience and personalize the content and advertising you see.
Visit our Privacy Policy to learn more. By continuing to use the site, you agree to this use of cookies and data.
  • In Hungary
  • List of Countries
  • For 7 days
  • Water Temperature
  • Satellite Maps
  • Weather Map
  • News
  • Weather Widgets
  • user-avatar
    Login

    Hourly Weather Wiklino

    Today, 10 December, Monday

    Time Temperature Precipitation Wind Pressure Humidity
    00:00 +4°C° 0.2 mm 6 mps 739 mmHg 90%
    01:00 +3°C° 0 mm 6 mps 739 mmHg 93%
    02:00 +3°C° 0.3 mm 7 mps 740 mmHg 86%
    03:00 +2°C° 0.3 mm 8 mps 740 mmHg 79%
    04:00 +2°C° 0.3 mm 9 mps 741 mmHg 73%
    05:00 +2°C° 0 mm 8 mps 741 mmHg 74%
    06:00 +1°C° 0 mm 8 mps 742 mmHg 76%
    07:00 +2°C° 0 mm 7 mps 743 mmHg 79%
    08:00 +2°C° 0.1 mm 7 mps 743 mmHg 77%
    09:00 +2°C° 0.1 mm 7 mps 744 mmHg 75%
    10:00 +1°C° 0.1 mm 8 mps 744 mmHg 72%
    11:00 +2°C° 0.1 mm 8 mps 744 mmHg 70%
    12:00 +2°C° 0.1 mm 8 mps 744 mmHg 68%
    13:00 +2°C° 0.1 mm 8 mps 745 mmHg 66%
    14:00 +3°C° 0 mm 7 mps 745 mmHg 69%
    15:00 +2°C° 0 mm 7 mps 745 mmHg 71%
    16:00 +2°C° 0 mm 6 mps 745 mmHg 74%
    17:00 +1°C° 0.1 mm 6 mps 745 mmHg 76%
    18:00 +1°C° 0.1 mm 6 mps 745 mmHg 78%
    19:00 +1°C° 0.1 mm 6 mps 745 mmHg 80%
    20:00 +1°C° 0.1 mm 6 mps 745 mmHg 80%
    21:00 +1°C° 0.1 mm 5 mps 745 mmHg 81%
    22:00 +1°C° 0.1 mm 5 mps 746 mmHg 82%
    23:00 +1°C° 0.3 mm 5 mps 746 mmHg 83%

    Tomorrow, 11 December, Tuesday

    Time Temperature Precipitation Wind Pressure Humidity
    00:00 +1°C° 0.3 mm 4 mps 746 mmHg 83%
    01:00 +1°C° 0.3 mm 4 mps 746 mmHg 84%
    02:00 +1°C° 0.2 mm 4 mps 746 mmHg 85%
    03:00 +2°C° 0.2 mm 3 mps 746 mmHg 86%
    04:00 +2°C° 0.2 mm 3 mps 747 mmHg 87%
    05:00 +1°C° 0.1 mm 4 mps 747 mmHg 88%
    06:00 0°C° 0.1 mm 4 mps 748 mmHg 88%
    07:00 0°C° 0.1 mm 4 mps 748 mmHg 89%
    08:00 +1°C° 0.2 mm 4 mps 749 mmHg 89%
    09:00 +1°C° 0.2 mm 5 mps 749 mmHg 88%
    10:00 +1°C° 0.2 mm 5 mps 750 mmHg 88%
    11:00 +1°C° 0.1 mm 5 mps 751 mmHg 86%
    12:00 +2°C° 0.1 mm 5 mps 751 mmHg 84%
    13:00 +2°C° 0.1 mm 5 mps 752 mmHg 82%
    14:00 +2°C° 0.1 mm 5 mps 752 mmHg 83%
    15:00 +1°C° 0.1 mm 5 mps 753 mmHg 85%
    16:00 +1°C° 0.1 mm 5 mps 753 mmHg 86%
    17:00 +1°C° 0.1 mm 4 mps 754 mmHg 86%
    18:00 +1°C° 0.1 mm 4 mps 754 mmHg 86%
    19:00 +1°C° 0.1 mm 4 mps 755 mmHg 86%
    20:00 +2°C° 0 mm 3 mps 755 mmHg 85%
    21:00 +2°C° 0 mm 3 mps 756 mmHg 84%
    22:00 +2°C° 0 mm 3 mps 756 mmHg 83%
    23:00 +2°C° 0 mm 3 mps 757 mmHg 83%

    Day after tomorrow, 12 December, Wednesday

    Time Temperature Precipitation Wind Pressure Humidity
    00:00 +1°C° 0 mm 3 mps 757 mmHg 83%
    01:00 +1°C° 0 mm 3 mps 758 mmHg 83%
    02:00 +2°C° 0 mm 2 mps 758 mmHg 83%
    03:00 +2°C° 0 mm 2 mps 758 mmHg 84%
    04:00 +2°C° 0 mm 2 mps 758 mmHg 84%
    05:00 +2°C° 0.1 mm 2 mps 759 mmHg 85%
    06:00 +1°C° 0.1 mm 3 mps 759 mmHg 86%
    07:00 0°C° 0.1 mm 3 mps 759 mmHg 87%
    08:00 +1°C° 0.1 mm 3 mps 760 mmHg 86%
    09:00 +1°C° 0.1 mm 3 mps 760 mmHg 86%
    10:00 +2°C° 0.1 mm 3 mps 760 mmHg 86%
    11:00 +2°C° 0.1 mm 3 mps 760 mmHg 85%
    12:00 +2°C° 0.1 mm 3 mps 760 mmHg 84%
    13:00 +3°C° 0.1 mm 4 mps 760 mmHg 83%
    14:00 +1°C° 0.2 mm 4 mps 760 mmHg 85%
    15:00 +1°C° 0.2 mm 4 mps 760 mmHg 87%
    16:00 +1°C° 0.2 mm 5 mps 760 mmHg 88%
    17:00 +1°C° 0.1 mm 5 mps 761 mmHg 88%
    18:00 +1°C° 0.1 mm 5 mps 761 mmHg 88%
    19:00 0°C° 0.1 mm 5 mps 761 mmHg 88%
    20:00 0°C° 0.1 mm 5 mps 761 mmHg 89%
    21:00 0°C° 0.1 mm 5 mps 762 mmHg 90%
    22:00 0°C° 0.1 mm 4 mps 762 mmHg 90%
    23:00 0°C° 0.1 mm 4 mps 762 mmHg 90%

    13 December, Thursday

    Time Temperature Precipitation Wind Pressure Humidity
    00:00 0°C° 0.1 mm 5 mps 762 mmHg 90%
    01:00 0°C° 0.1 mm 5 mps 762 mmHg 89%
    02:00 0°C° 0.1 mm 5 mps 761 mmHg 89%
    03:00 0°C° 0.1 mm 5 mps 761 mmHg 88%
    04:00 0°C° 0.1 mm 5 mps 761 mmHg 88%
    05:00 0°C° 0.1 mm 5 mps 761 mmHg 87%
    06:00 0°C° 0.1 mm 5 mps 761 mmHg 86%
    07:00 0°C° 0.1 mm 5 mps 760 mmHg 85%
    08:00 0°C° 0.1 mm 5 mps 760 mmHg 84%
    09:00 0°C° 0.1 mm 5 mps 760 mmHg 82%
    10:00 0°C° 0.1 mm 5 mps 760 mmHg 80%
    11:00 0°C° 0.1 mm 5 mps 760 mmHg 78%
    12:00 0°C° 0.1 mm 5 mps 760 mmHg 77%
    13:00 0°C° 0.1 mm 5 mps 760 mmHg 76%
    14:00 0°C° 0.1 mm 5 mps 759 mmHg 77%
    15:00 0°C° 0.1 mm 5 mps 759 mmHg 79%
    16:00 0°C° 0.1 mm 5 mps 759 mmHg 80%
    17:00 -1°C° 0.1 mm 5 mps 759 mmHg 81%
    18:00 -1°C° 0.1 mm 4 mps 760 mmHg 83%
    19:00 -1°C° 0.1 mm 4 mps 760 mmHg 84%
    20:00 -1°C° 0.1 mm 4 mps 760 mmHg 85%
    21:00 -1°C° 0.1 mm 4 mps 760 mmHg 86%
    22:00 0°C° 0.1 mm 3 mps 760 mmHg 87%
    23:00 0°C° 0.1 mm 3 mps 760 mmHg 88%

    14 December, Friday

    Time Temperature Precipitation Wind Pressure Humidity
    00:00 0°C° 0.1 mm 3 mps 761 mmHg 89%
    01:00 0°C° 0.1 mm 3 mps 761 mmHg 90%
    02:00 0°C° 0 mm 3 mps 761 mmHg 90%
    03:00 0°C° 0 mm 3 mps 761 mmHg 91%
    04:00 0°C° 0 mm 3 mps 761 mmHg 91%
    05:00 -1°C° 0 mm 3 mps 762 mmHg 92%
    06:00 -1°C° 0 mm 3 mps 762 mmHg 92%
    07:00 -1°C° 0 mm 3 mps 762 mmHg 93%
    08:00 -1°C° 0 mm 3 mps 763 mmHg 91%
    09:00 -2°C° 0 mm 4 mps 764 mmHg 89%
    10:00 -1°C° 0 mm 4 mps 764 mmHg 86%
    11:00 0°C° 0 mm 3 mps 765 mmHg 84%
    12:00 0°C° 0 mm 3 mps 765 mmHg 82%
    13:00 +1°C° 0 mm 3 mps 765 mmHg 80%
    14:00 0°C° 0 mm 3 mps 765 mmHg 84%
    15:00 -1°C° 0 mm 3 mps 766 mmHg 87%
    16:00 -1°C° 0 mm 3 mps 766 mmHg 90%
    17:00 -1°C° 0 mm 3 mps 766 mmHg 91%
    18:00 -1°C° 0 mm 3 mps 767 mmHg 91%
    19:00 -2°C° 0 mm 3 mps 767 mmHg 92%
    20:00 -2°C° 0 mm 3 mps 767 mmHg 91%
    21:00 -2°C° 0 mm 3 mps 767 mmHg 91%
    22:00 -2°C° 0 mm 3 mps 768 mmHg 90%
    23:00 -2°C° 0 mm 3 mps 768 mmHg 90%

    15 December, Saturday

    Time Temperature Precipitation Wind Pressure Humidity
    00:00 -2°C° 0 mm 2 mps 768 mmHg 89%
    01:00 -2°C° 0 mm 2 mps 768 mmHg 89%
    02:00 -2°C° 0 mm 2 mps 769 mmHg 88%
    03:00 -1°C° 0 mm 2 mps 769 mmHg 88%
    04:00 -1°C° 0 mm 2 mps 769 mmHg 87%
    05:00 -1°C° 0 mm 2 mps 769 mmHg 86%
    06:00 -1°C° 0 mm 2 mps 769 mmHg 85%
    07:00 -1°C° 0 mm 3 mps 770 mmHg 84%
    08:00 -1°C° 0 mm 3 mps 770 mmHg 82%
    09:00 -1°C° 0 mm 3 mps 770 mmHg 80%
    10:00 -1°C° 0 mm 3 mps 770 mmHg 78%
    11:00 0°C° 0 mm 3 mps 770 mmHg 76%
    12:00 0°C° 0 mm 3 mps 770 mmHg 74%
    13:00 0°C° 0 mm 3 mps 770 mmHg 72%
    14:00 0°C° 0 mm 3 mps 770 mmHg 76%
    15:00 -1°C° 0 mm 3 mps 770 mmHg 80%
    16:00 -3°C° 0 mm 4 mps 770 mmHg 84%
    17:00 -3°C° 0 mm 4 mps 770 mmHg 85%
    18:00 -3°C° 0 mm 4 mps 770 mmHg 86%
    19:00 -4°C° 0 mm 5 mps 770 mmHg 88%
    20:00 -4°C° 0 mm 5 mps 770 mmHg 87%
    21:00 -4°C° 0 mm 5 mps 770 mmHg 87%
    22:00 -4°C° 0 mm 5 mps 770 mmHg 87%
    23:00 -4°C° 0 mm 6 mps 770 mmHg 86%
    Show more